Date,TemperatureHighF,TemperatureAvgF,TemperatureLowF,DewpointHighF,DewpointAvgF,DewpointLowF,HumidityHigh,HumidityAvg,HumidityLow,PressureMaxIn,PressureMinIn,WindSpeedMaxMPH,WindSpeedAvgMPH,GustSpeedMaxMPH,PrecipitationSumIn
2014-1-1,27.0,23.2,19.0,23.1,19.3,13.3,93,85,77,30.28,30.02,7,4,0,0.00
2014-1-2,24.6,21.7,12.6,21.8,19.4,11.2,95,91,83,29.99,29.65,10,5,0,0.00
2014-1-3,17.2,9.2,0.7,11.0,0.7,-5.3,94,70,38,30.34,29.68,11,4,0,0.00
2014-1-4,24.4,10.6,0.0,11.8,4.8,-2.4,91,78,54,30.33,30.01,6,2,0,0.00
2014-1-5,32.5,19.3,4.5,32.0,16.0,2.7,98,87,66,30.15,29.40,8,2,0,0.00
2014-1-6,42.3,25.9,-0.4,42.0,18.2,-13.4,99,73,49,29.87,29.22,20,8,0,0.38
2014-1-7,5.2,-0.6,-7.2,-3.8,-11.3,-17.7,72,60,50,30.25,29.81,23,7,0,0.00
2014-1-8,20.5,12.1,2.3,14.6,2.6,-3.8,86,66,49,30.45,30.20,8,3,0,0.00
2014-1-9,29.3,20.1,12.2,19.5,15.3,10.3,92,82,59,30.56,30.28,7,1,0,0.00
2014-1-10,34.0,29.6,24.4,30.6,26.9,19.4,96,89,76,30.30,29.90,7,3,0,0.01
2014-1-11,44.4,35.6,31.8,41.2,34.7,30.8,99,97,78,29.89,29.23,17,2,0,0.56
2014-1-12,41.5,36.7,27.5,35.7,30.1,25.5,92,77,70,29.94,29.33,18,6,0,0.00
2014-1-13,42.6,32.9,22.6,35.3,29.9,21.9,98,89,72,29.93,29.62,6,1,0,0.08
2014-1-14,44.2,36.9,27.7,43.4,36.3,27.2,99,98,93,29.74,29.55,5,1,0,0.23
2014-1-15,38.7,31.9,27.5,36.2,28.5,20.0,99,88,62,29.86,29.64,8,2,0,0.01
2014-1-16,35.2,28.3,23.0,22.3,18.7,15.2,92,68,44,29.90,29.67,8,2,0,0.00
2014-1-17,40.1,30.9,23.5,30.4,26.0,21.5,94,82,64,29.79,29.63,7,2,0,0.00
2014-1-18,30.2,23.0,16.2,29.7,16.5,9.1,99,77,52,29.83,29.62,16,5,0,0.00
2014-1-19,32.5,24.1,15.8,22.4,18.0,10.3,93,78,65,29.71,29.41,11,3,0,0.00
2014-1-20,38.7,34.0,27.3,30.1,24.8,17.6,76,69,61,29.73,29.41,16,6,0,0.00
2014-1-21,27.1,14.9,2.1,18.3,7.5,-5.1,92,72,57,29.95,29.73,12,5,0,0.00
2014-1-22,17.1,4.4,-6.3,1.1,-4.1,-8.9,89,69,45,29.94,29.73,10,3,0,0.00
2014-1-23,19.8,9.9,0.1,12.2,5.0,-1.9,91,81,49,30.22,29.87,12,2,0,0.00
2014-1-24,19.8,12.6,3.0,4.8,0.5,-3.4,84,60,37,30.34,29.72,14,5,0,0.00
2014-1-25,28.2,21.8,16.0,24.4,9.7,-1.1,93,61,41,29.72,29.22,18,5,0,0.00
2014-1-26,24.3,15.3,7.9,17.1,5.7,-2.5,77,65,51,29.75,29.43,11,4,0,0.00
2014-1-27,32.0,20.4,9.1,26.1,8.8,-3.4,86,62,31,29.99,29.37,26,6,0,0.00
2014-1-28,14.0,7.1,-0.9,-2.0,-5.6,-7.9,72,56,43,30.33,29.97,9,4,0,0.00
2014-1-29,19.0,9.4,-1.3,-0.2,-4.1,-9.4,70,55,37,30.18,29.98,15,5,0,0.00
2014-1-30,32.4,16.7,-0.4,7.4,2.4,-3.1,89,56,30,30.34,29.81,9,2,0,0.00
2014-1-31,31.3,26.3,19.2,19.0,13.3,7.4,68,57,49,30.12,29.85,6,2,0,0.00